EW2776 Weather Reports


Display with metric or nautical units.
time (UTC)temp
F
wind
direction
speed
MPH
gust
MPH
rain 1hr
in
rain 24hr
in
rain mn
in
humidity
%
barometer
mb
20260506091531 49 286 1.0 8.0 0.00 0.00 0.00 39 1010.8
20260506090029 48 326 0.0 4.0 0.00 0.00 0.00 43 1010.8
20260506084535 50 307 0.0 8.0 0.00 0.00 0.00 41 1010.8
20260506083026 48 302 1.0 10.0 0.00 0.00 0.00 42 1010.7
20260506081524 49 294 1.0 6.0 0.00 0.00 0.00 41 1010.6
20260506073018 48 270 0.0 4.0 0.00 0.00 0.00 46 1010.4
20260506071516 48 263 0.0 7.0 0.00 0.00 0.00 48 1010.2
20260506061505 45 254 0.0 2.0 0.00 0.00 0.00 59 1009.9
20260506044549 38 267 0.0 3.0 0.00 0.00 0.00 86 1009.1
20260506043040 35 266 0.0 3.0 0.00 0.00 0.00 96 1009.1
20260506041547 30 211 0.0 0.0 0.00 0.00 0.00 95 1008.8
20260506040038 28 211 0.0 0.0 0.00 0.00 0.00 94 1008.8
20260506034532 27 211 0.0 0.0 0.00 0.00 0.00 94 1008.6
20260506033028 26 211 0.0 0.0 0.00 0.00 0.00 94 1008.5
20260506031526 25 211 0.0 0.0 0.00 0.00 0.00 94 1008.2
20260506030024 24 211 0.0 0.0 0.00 0.00 0.00 93 1008.1
20260506024526 24 211 0.0 0.0 0.00 0.00 0.00 93 1008.0
20260506023022 24 211 0.0 0.0 0.00 0.00 0.00 93 1007.9
20260506021520 24 211 0.0 0.0 0.00 0.00 0.00 93 1007.9
20260506020019 24 211 0.0 0.0 0.00 0.00 0.00 92 1007.8
20260506014518 24 211 0.0 0.0 0.00 0.00 0.00 92 1007.7
20260506013016 25 211 0.0 0.0 0.00 0.00 0.00 92 1007.6
20260506011532 25 211 0.0 0.0 0.00 0.00 0.00 92 1007.4
20260506010014 25 211 0.0 0.0 0.00 0.00 0.00 91 1007.3
20260506004525 25 211 0.0 0.0 0.00 0.00 0.00 92 1007.1
20260506003010 25 211 0.0 0.0 0.00 0.00 0.00 91 1007.0
20260506001507 25 211 0.0 0.0 0.00 0.00 0.00 91 1006.9
20260506000005 26 211 0.0 0.0 0.00 0.00 0.00 91 1006.8
20260505234503 26 211 0.0 0.0 0.00 0.00 0.00 91 1006.7
20260505233002 26 211 0.0 0.0 0.00 0.00 0.00 89 1006.6
20260505231600 26 211 0.0 0.0 0.00 0.00 0.00 90 1006.6
20260505224558 27 211 0.0 0.0 0.00 0.00 0.00 88 1006.6
20260505223057 27 211 0.0 0.0 0.00 0.00 0.00 88 1006.5
20260505221601 28 211 0.0 0.0 0.00 0.00 0.00 88 1006.5
20260505220100 28 211 0.0 0.0 0.00 0.00 0.00 87 1006.4
20260505214553 28 211 0.0 0.0 0.00 0.00 0.00 87 1006.4
20260505213049 29 211 0.0 0.0 0.00 0.00 0.00 85 1006.3
20260505211545 29 211 0.0 0.0 0.00 0.00 0.00 84 1006.3
20260505210049 29 211 0.0 0.0 0.00 0.00 0.00 84 1006.2
20260505204551 30 211 0.0 0.0 0.00 0.01 0.00 81 1006.1
20260505203036 32 211 0.0 0.0 0.00 0.01 0.00 78 1005.9
20260505201536 33 211 0.0 0.0 0.00 0.01 0.00 77 1005.9
20260505200030 34 211 0.0 0.0 0.00 0.01 0.00 75 1005.7
20260505194526 36 211 0.0 0.0 0.00 0.02 0.00 71 1005.6
20260505193032 38 211 0.0 0.0 0.00 0.02 0.00 69 1005.5
20260505191522 40 211 0.0 0.0 0.00 0.02 0.00 67 1005.4
20260505190014 40 211 0.0 0.0 0.00 0.02 0.00 64 1005.4
20260505184512 41 259 0.0 3.0 0.00 0.02 0.00 63 1005.3
20260505183017 42 259 1.0 4.0 0.00 0.02 0.00 61 1005.0
20260505181510 43 259 1.0 7.0 0.00 0.02 0.00 61 1004.9
20260505180007 44 261 1.0 5.0 0.00 0.02 0.00 59 1004.6
20260505174505 44 300 0.0 6.0 0.00 0.02 0.00 58 1004.5
20260505173005 44 284 1.0 4.0 0.00 0.02 0.00 57 1004.5
20260505171503 45 253 1.0 7.0 0.00 0.02 0.00 56 1004.4
20260505170003 45 307 1.0 4.0 0.00 0.02 0.00 55 1004.4
20260505164501 45 269 2.0 9.0 0.00 0.02 0.00 56 1004.3
20260505163059 45 248 0.0 7.0 0.00 0.02 0.00 54 1004.1
20260505161601 47 327 2.0 12.0 0.00 0.02 0.00 50 1004.1
20260505153109 48 322 2.0 10.0 0.00 0.02 0.00 50 1003.8
20260505151554 48 289 1.0 8.0 0.00 0.02 0.00 50 1003.8
20260505124548 49 328 1.0 8.0 0.00 0.02 0.00 49 1002.9
20260505123044 48 290 3.0 10.0 0.00 0.02 0.00 51 1002.8
20260505121540 49 265 0.0 10.0 0.00 0.02 0.00 51 1002.8
20260505120049 49 323 3.0 11.0 0.00 0.02 0.00 48 1002.6
20260505114538 49 316 4.0 12.0 0.00 0.02 0.00 46 1002.5
20260505113038 48 334 3.0 8.0 0.00 0.02 0.00 49 1002.4
20260505111535 48 263 3.0 10.0 0.00 0.02 0.00 47 1002.2
20260505101527 49 327 3.0 8.0 0.00 0.02 0.00 55 1001.5
20260505100024 47 335 2.0 6.0 0.00 0.02 0.00 57 1001.5
20260505094522 47 332 2.0 7.0 0.00 0.03 0.00 58 1001.4
20260505093021 47 332 0.0 12.0 0.00 0.03 0.00 59 1001.3